Weather History for KORB - March, 2014

Change the Weather History Date:

Sunday, March 23, 2014

  Actual Average Record
Temperature  
Mean Temperature 2 °F -  
Max Temperature 17 °F 36 °F - (-1)
Min Temperature -14 °F 15 °F - (-1)
Degree Days  
Heating Degree Days 64    
Moisture  
Dew Point -9 °F    
Average Humidity 61    
Maximum Humidity 84    
Minimum Humidity 35    
Precipitation  
Precipitation 0.00 in - - ()
Sea Level Pressure  
Sea Level Pressure 30.31 in    
Wind  
Wind Speed 4 mph (WNW)    
Max Wind Speed 12 mph    
Max Gust Speed 16 mph    
Visibility 10 miles    
Events      
Averages and records for this station are not official NWS values.
T = Trace of Precipitation, MM = Missing Value Source: NWS Daily Summary

Daily Weather History Graph

Daily Weather History Graph

Search for Another Location

Airport or City:

Trip Planner

Search our weather history database for the weather conditions in past years. The results will help you decide how hot, cold, wet, or windy it might be!

Date:

Astronomy

Mar. 23, 2014 Rise Set
Actual Time 7:08 AM CDT 7:28 PM CDT
Civil Twilight 6:37 AM CDT 7:59 PM CDT
Nautical Twilight 6:00 AM CDT 8:36 PM CDT
Astronomical Twilight 5:22 AM CDT 9:14 PM CDT
Moon 2:07 AM CDT (3/23) 11:28 AM CDT (3/23)
Length of Visible Light 13h 22m
Length of Day
12h 20m
Waning Gibbous, 54% of the Moon is Illuminated
Mar 23
Waning Gibbous
Mar 23
Last Quarter
Mar 30
New
Apr 7
First Quarter
Apr 15
Full

Hourly Weather History & Observations

Time (CDT) Temp. Windchill Dew Point Humidity Pressure Visibility Wind Dir Wind Speed Gust Speed Precip Events Conditions
12:13 AM -0.4 °F -12.0 °F -7.6 °F 72% 30.37 in 10.0 mi WNW 5.8 mph - N/A   Clear
12:33 AM -0.4 °F -10.4 °F -7.6 °F 72% 30.37 in 10.0 mi WNW 4.6 mph - N/A   Clear
12:53 AM -0.4 °F -12.0 °F -9.4 °F 66% 30.37 in 10.0 mi WNW 5.8 mph - N/A   Clear
1:13 AM -2.2 °F -12.5 °F -9.4 °F 71% 30.37 in 10.0 mi NW 4.6 mph - N/A   Clear
1:33 AM -2.2 °F -10.4 °F -9.4 °F 71% 30.37 in 10.0 mi NW 3.5 mph - N/A   Clear
1:53 AM -2.2 °F -12.5 °F -9.4 °F 71% 30.37 in 10.0 mi NW 4.6 mph - N/A   Clear
2:13 AM -2.2 °F -12.5 °F -9.4 °F 71% 30.37 in 10.0 mi NW 4.6 mph - N/A   Clear
2:33 AM -4.0 °F -14.6 °F -9.4 °F 78% 30.37 in 10.0 mi NW 4.6 mph - N/A   Clear
2:53 AM -4.0 °F -14.6 °F -9.4 °F 78% 30.37 in 10.0 mi NW 4.6 mph - N/A   Clear
3:13 AM -5.8 °F -16.7 °F -9.4 °F 84% 30.36 in 10.0 mi NW 4.6 mph - N/A   Clear
3:33 AM -5.8 °F -14.5 °F -9.4 °F 84% 30.36 in 10.0 mi NW 3.5 mph - N/A   Clear
3:53 AM -5.8 °F -16.7 °F -11.2 °F 77% 30.36 in 10.0 mi NW 4.6 mph - N/A   Clear
4:13 AM -5.8 °F -16.7 °F -11.2 °F 77% 30.36 in 10.0 mi NW 4.6 mph - N/A   Clear
4:33 AM -7.6 °F -18.8 °F -11.2 °F 84% 30.36 in 10.0 mi NW 4.6 mph - N/A   Clear
4:53 AM -9.4 °F -18.6 °F -13.0 °F 84% 30.36 in 10.0 mi NW 3.5 mph - N/A   Clear
5:13 AM -9.4 °F - -14.8 °F 77% 30.36 in 10.0 mi Calm Calm - N/A   Clear
5:33 AM -9.4 °F -20.9 °F -14.8 °F 77% 30.36 in 10.0 mi NW 4.6 mph - N/A   Clear
5:53 AM -14.8 °F - -18.4 °F 84% 30.36 in 10.0 mi Calm Calm - N/A   Clear
6:13 AM -13.0 °F - -18.4 °F 77% 30.36 in 10.0 mi Calm Calm - N/A   Clear
6:33 AM -13.0 °F - -18.4 °F 77% 30.36 in 10.0 mi Calm Calm - N/A   Clear
6:53 AM -14.8 °F - -20.2 °F 77% 30.37 in 10.0 mi Calm Calm - N/A   Clear
7:13 AM -14.8 °F - -20.2 °F 77% 30.37 in 10.0 mi Calm Calm - N/A   Clear
7:33 AM -14.8 °F - -20.2 °F 77% 30.37 in 10.0 mi Calm Calm - N/A   Clear
7:53 AM -13.0 °F - -18.4 °F 77% 30.36 in 10.0 mi Calm Calm - N/A   Clear
8:13 AM -11.2 °F - -16.6 °F 77% 30.37 in 10.0 mi Calm Calm - N/A   Clear
8:33 AM -9.4 °F - -14.8 °F 77% 30.37 in 10.0 mi Calm Calm - N/A   Clear
8:53 AM -5.8 °F - -11.2 °F 77% 30.36 in 10.0 mi Calm Calm - N/A   Clear
9:13 AM -4.0 °F - -11.2 °F 71% 30.36 in 10.0 mi Calm Calm - N/A   Clear
9:33 AM -2.2 °F - -9.4 °F 71% 30.36 in 10.0 mi Calm Calm - N/A   Clear
9:53 AM 1.4 °F - -9.4 °F 61% 30.36 in 10.0 mi Calm Calm - N/A   Clear
10:13 AM 1.4 °F - -9.4 °F 61% 30.36 in 10.0 mi Calm Calm - N/A   Clear
10:33 AM 3.2 °F - -7.6 °F 61% 30.36 in 10.0 mi Calm Calm - N/A   Clear
10:53 AM 6.8 °F - -7.6 °F 52% 30.36 in 10.0 mi Calm Calm - N/A   Clear
11:13 AM 6.8 °F -2.0 °F -7.6 °F 52% 30.36 in 10.0 mi NW 4.6 mph - N/A   Clear
11:33 AM 8.6 °F -1.3 °F -7.6 °F 48% 30.35 in 10.0 mi NW 5.8 mph - N/A   Clear
11:53 AM 8.6 °F -1.3 °F -5.8 °F 52% 30.35 in 10.0 mi NW 5.8 mph - N/A   Clear
12:13 PM 10.4 °F -0.4 °F -5.8 °F 48% 30.35 in 10.0 mi West 6.9 mph - N/A   Clear
12:33 PM 10.4 °F 2.2 °F -5.8 °F 48% 30.34 in 10.0 mi NW 4.6 mph - N/A   Clear
12:53 PM 12.2 °F 0.7 °F -4.0 °F 48% 30.33 in 10.0 mi NW 8.1 mph - N/A   Scattered Clouds
1:13 PM 10.4 °F 0.8 °F -4.0 °F 52% 30.33 in 10.0 mi NW 5.8 mph - N/A   Mostly Cloudy
1:33 PM 12.2 °F 2.9 °F -4.0 °F 48% 30.33 in 10.0 mi NW 5.8 mph - N/A   Mostly Cloudy
1:53 PM 14.0 °F 3.9 °F -4.0 °F 45% 30.32 in 10.0 mi NW 6.9 mph - N/A   Mostly Cloudy
2:13 PM 14.0 °F 2.0 °F -4.0 °F 45% 30.31 in 10.0 mi NW 9.2 mph - N/A   Scattered Clouds
2:33 PM 14.0 °F 3.9 °F -2.2 °F 49% 30.30 in 10.0 mi NW 6.9 mph - N/A   Clear
2:53 PM 15.8 °F 8.6 °F -4.0 °F 41% 30.30 in 10.0 mi NW 4.6 mph - N/A   Scattered Clouds
3:13 PM 15.8 °F 7.2 °F -4.0 °F 41% 30.29 in 10.0 mi WNW 5.8 mph - N/A   Clear
3:33 PM 17.6 °F 7.3 °F -4.0 °F 38% 30.28 in 10.0 mi WNW 8.1 mph - N/A   Scattered Clouds
3:53 PM 17.6 °F 5.0 °F -5.8 °F 35% 30.28 in 10.0 mi WNW 11.5 mph - N/A   Clear
4:13 PM 15.8 °F 6.1 °F -4.0 °F 41% 30.27 in 10.0 mi WNW 6.9 mph - N/A   Clear
4:33 PM 17.6 °F 7.3 °F -5.8 °F 35% 30.27 in 10.0 mi West 8.1 mph 16.1 mph N/A   Scattered Clouds
4:53 PM 17.6 °F 8.2 °F -5.8 °F 35% 30.26 in 10.0 mi WNW 6.9 mph - N/A   Clear
5:13 PM 15.8 °F 6.1 °F -5.8 °F 38% 30.26 in 10.0 mi West 6.9 mph - N/A   Clear
5:33 PM 15.8 °F 5.1 °F -7.6 °F 35% 30.25 in 10.0 mi WNW 8.1 mph - N/A   Clear
5:53 PM 15.8 °F 7.2 °F -5.8 °F 38% 30.25 in 10.0 mi WNW 5.8 mph - N/A   Clear
6:13 PM 15.8 °F 6.1 °F -5.8 °F 38% 30.24 in 10.0 mi NW 6.9 mph - N/A   Clear
6:33 PM 15.8 °F 6.1 °F -5.8 °F 38% 30.24 in 10.0 mi West 6.9 mph - N/A   Clear
6:53 PM 14.0 °F 3.9 °F -5.8 °F 41% 30.24 in 10.0 mi West 6.9 mph - N/A   Clear
7:13 PM 12.2 °F 2.9 °F -5.8 °F 45% 30.24 in 10.0 mi West 5.8 mph - N/A   Clear
7:33 PM 12.2 °F 4.3 °F -5.8 °F 45% 30.24 in 10.0 mi West 4.6 mph - N/A   Clear
7:53 PM 10.4 °F 4.0 °F -7.6 °F 44% 30.24 in 10.0 mi West 3.5 mph - N/A   Clear
8:13 PM 8.6 °F - -7.6 °F 48% 30.24 in 10.0 mi Calm Calm - N/A   Clear
8:33 PM 8.6 °F - -7.6 °F 48% 30.24 in 10.0 mi Calm Calm - N/A   Clear
8:53 PM 5.0 °F - -5.8 °F 61% 30.23 in 10.0 mi Calm Calm - N/A   Clear
9:13 PM 6.8 °F -0.1 °F -7.6 °F 52% 30.23 in 10.0 mi WSW 3.5 mph - N/A   Clear
9:33 PM 3.2 °F - -7.6 °F 61% 30.24 in 10.0 mi Calm Calm - N/A   Clear
9:53 PM 5.0 °F -2.1 °F -7.6 °F 56% 30.23 in 10.0 mi West 3.5 mph - N/A   Clear
10:13 PM 3.2 °F -4.2 °F -5.8 °F 66% 30.23 in 10.0 mi WNW 3.5 mph - N/A   Clear
10:33 PM 3.2 °F - -5.8 °F 66% 30.23 in 10.0 mi Calm Calm - N/A   Clear
10:53 PM 1.4 °F - -4.0 °F 78% 30.23 in 10.0 mi Calm Calm - N/A   Clear
11:13 PM 1.4 °F - -4.0 °F 78% 30.22 in 10.0 mi Calm Calm - N/A   Clear
11:33 PM 1.4 °F - -5.8 °F 72% 30.22 in 10.0 mi Calm Calm - N/A   Clear
11:53 PM 1.4 °F - -5.8 °F 72% 30.21 in 10.0 mi Calm Calm - N/A   Clear